sat.trackr.live / text

‹ back to catalog

STARLINK-6321

NORAD 57340 · 2023-099N

PAYLOAD ACTIVE UNKNOWN

§ Identity

Operator
Country
US
Launch date
2023-07-16
Launch site
AFETR
Launch vehicle
Mass (kg)
RCS (m²)

Purposes: comms

External: N2YO · Heavens-Above · Gunter

§ Orbital elements

Epoch: 2026-05-25T03:20:32.941824Z

Period
94.27 min
Inclination
43.0007°
Eccentricity
0.0000963
Mean motion
15.27574762 rev/d
Perigee alt
482.4 km
Apogee alt
483.7 km
Semi-major
6,861.2 km
B*
1.2716e-5
RAAN
181.0572°
Arg perigee
281.6894°
Mean anomaly
78.3849°
Rev number
15,776

§ Raw data

STARLINK-63211 57340U 23099N   26145.13927016  .00000088  00000+0  12716-4 0  99952 57340  43.0007 181.0572 0000963 281.6894  78.3849 15.27574762157766

JSON: /api/v1/satellites/57340 · /tle

For live sub-satellite position, see the globe view (requires WebGL).

§ Visibility from observer

Set your observer location to see the next 7 days of passes ≥ 10°. The values pass through the URL so the page stays shareable.

No JS? Fill the form by hand. The geolocation button needs JavaScript.